Regional Weather Roundup
Issued by NWS

Home | Current Version | Previous Version | Text Only | Print | Product List | Glossary Off
Versions: 1 2 3 4 5 6 7 8 9 10 11 12 13 14 15 16 17 18 19 20 21 22 23 24 25 26 27 28 29 30 31 32 33 34 35 36 37 38 39 40 41 42 43 44 45 46 47 48 49 50

000
ASUS45 KCYS 300710
RWRWY

WYOMING REGIONAL WEATHER ROUNDUP
NATIONAL WEATHER SERVICE CHEYENNE WY
100 AM MDT TUE AUG 30 2016

NOTE:  "FAIR" INDICATES FEW OR NO CLOUDS BELOW 12,000 FEET
WITH NO SIGNIFICANT WEATHER AND/OR OBSTRUCTIONS TO VISIBILITY.

WYZ001-300800-
YELLOWSTONE NATIONAL PARK

CITY           SKY/WX    TMP DP  RH WIND       PRES   REMARKS
LK YELLOWSTONE   N/A     45  31  58 NW3       30.46F
W YELLOWSTONE  NOT AVBL

$$
WYZ002>013-054>058-071-098>099-300800-
NORTHERN WYOMING

CITY           SKY/WX    TMP DP  RH WIND       PRES   REMARKS
JACKSON        FAIR      55  34  44 N5        30.36S
CODY           FAIR      68  39  34 S3        30.24S
GREYBULL       FAIR      70  36  28 SW5       30.18R
WORLAND        FAIR      62  40  44 S5        30.20R
SHERIDAN       FAIR      62  45  53 VRB5      30.18F
BUFFALO        FAIR      65  44  46 S9        30.29S
GILLETTE       FAIR      67  55  65 S16       30.25S
HULETT         FAIR      63  52  67 SE6       30.28F
NEWCASTLE      FAIR      61  52  72 SW5G16    30.30R

$$
WYZ014>020-022>026-101>103-300800-
CENTRAL WYOMING

CITY           SKY/WX    TMP DP  RH WIND       PRES   REMARKS
BIG PINEY      FAIR      54  27  35 E5        30.42R
PINEDALE       FAIR      45  32  61 W3        30.44R
DUBOIS         FAIR      55  30  38 NW5       30.42S
LANDER         FAIR      70  32  24 S20       30.31S
RIVERTON       FAIR      66  33  29 SW8       30.31R
CASPER         FAIR      56  46  69 CALM      30.32S
DOUGLAS        FAIR      60  49  66 E6        30.32F

$$
WYZ021-027>030-104>119-300800-
SOUTHERN WYOMING

CITY           SKY/WX    TMP DP  RH WIND       PRES   REMARKS
EVANSTON       FAIR      63  21  20 E10G16    30.37F
FORT BRIDGER   FAIR      56  22  26 S9        30.40S
ROCK SPRINGS   FAIR      63  30  28 S3        30.38R
DIXON          FAIR      51  37  57 E5        30.41S
RAWLINS        FAIR      55  35  47 E6        30.41F
SARATOGA       FAIR      48  37  66 CALM      30.44S
LARAMIE        FAIR      48  38  68 NW3       30.45R
CHEYENNE       FAIR      56  42  59 W6        30.38F
TORRINGTON     FAIR      61  56  83 CALM      30.27S
PINE BLUFFS    FAIR      55  46  71 SW3       30.34S

$$



USA.gov is the U.S. government's official web portal to all federal, state and local government web resources and services.